Regional Weather Roundup
Issued by NWS

Home | Current Version | Previous Version | Graphics & Text | Print | Product List | Glossary Off
Versions: 1 2 3 4 5 6 7 8 9 10 11 12 13 14 15 16 17 18 19 20 21 22 23 24 25 26 27 28 29 30 31 32 33 34 35 36 37 38 39 40 41 42 43 44 45 46 47 48 49 50

000
ASUS43 KTOP 230308
RWRKS

WEATHER ROUNDUP FOR KANSAS
NATIONAL WEATHER SERVICE GOODLAND KS
900 PM CST SUN JAN 22 2017

NOTE:  "FAIR" INDICATES FEW OR NO CLOUDS BELOW 12,000 FEET WITH NO
SIGNIFICANT WEATHER AND/OR OBSTRUCTIONS TO VISIBILITY.

KSZ001>006-013>018-027>032-041>047-230400-
NORTHWEST KANSAS

CITY           SKY/WX    TMP DP  RH WIND       PRES   REMARKS
GOODLAND       CLEAR     30  23  75 W10       29.93R WCI  21
HAYS           CLEAR     34  25  69 NW3       29.92R
HILL CITY      CLEAR     32  27  81 W6        29.92R
RUSSELL        CLEAR     37  26  64 NW5       29.90R
$$

KSZ061>065-074>080-084>089-230400-
SOUTHWEST KANSAS

CITY           SKY/WX    TMP DP  RH WIND       PRES   REMARKS
DODGE CITY     CLEAR     33  24  69 W7        29.95R
ELKHART          N/A     33  17  51 W6          N/A
GARDEN CITY    CLEAR     34  27  75 NW8       29.95R
GREAT BEND     CLEAR     30  26  85 W3        29.93R
LIBERAL          N/A     30  19  64 NW7       29.97R
PRATT          PTCLDY    30  26  82 W7        29.93R
$$

KSZ066>073-081>083-090>101-230400-
SOUTHEAST KANSAS

CITY           SKY/WX    TMP DP  RH WIND       PRES   REMARKS
CHANUTE        PTCLDY    38  32  79 NW9       29.88R
COFFEYVILLE    CLOUDY    38  32  79 NW9       29.89R
HUTCHINSON     CLEAR     37  27  67 W3        29.92R
MEDICINE LODGE   N/A     36  27  69 NW3       29.94R
NEWTON         CLEAR     32  29  88 N7        29.92R
PARSONS        CLOUDY    39  33  79 NW9       29.89R
WICHITA INTL   CLEAR     40  30  67 N6        29.91R
WICHITA JABRA  CLEAR     34  31  88 N8        29.91R
WICHITA MCCONL CLEAR     35  30  83 N9        29.90S
WINFIELD       CLEAR     38  31  76 N8        29.91R
$$

KSZ007>012-019>026-033>040-048>060-102>105-230400-
NORTHEAST KANSAS

CITY           SKY/WX    TMP DP  RH WIND       PRES   REMARKS
CONCORDIA      CLEAR     36  31  82 CALM      29.89F
EMPORIA        CLEAR     31  29  92 NW9       29.90R
LAWRENCE       CLOUDY    39  35  86 NW16      29.87S WCI  30
MANHATTAN      CLEAR     29  26  89 CALM      29.91S
MARYSVILLE     CLEAR     30  30 100 CALM      29.89F FOG
OLATHE IND     CLOUDY    38  34  85 NW10      29.85S WCI  31
OLATHE EXE     CLOUDY    37  34  89 N10       29.84R WCI  30
SALINA         CLEAR     30  27  88 SW5       29.92F
TOPEKA BILLARD MOCLDY    39  33  79 NW9       29.89R
TOPEKA FORBES  CLOUDY    40  34  79 NW16      29.88R WCI  31
$$




USA.gov is the U.S. government's official web portal to all federal, state and local government web resources and services.